This is the latest recevied weather packets stored in our database for station/object KK7ISX. If no packets are shown the sender has not sent any weather packets the latest 10 day(s).
| Time | Temp. | Humidity | Pressure | Rain* | Wind** | Luminosity | Snow |
|---|---|---|---|---|---|---|---|
| 1777936794 | 27.22° C | 28% | 1004.2 hPa | 0 mm | - | 396 W/m² | - |
| 1777936490 | 27.22° C | 29% | 1004.4 hPa | 0 mm | - | 411 W/m² | - |
| 1777936187 | 26.67° C | 28% | 1004.4 hPa | 0 mm | - | 425 W/m² | - |
| 1777935883 | 27.22° C | 28% | 1004.5 hPa | 0 mm | - | 443 W/m² | - |
| 1777935583 | 26.67° C | 28% | 1004.5 hPa | 0 mm | - | 456 W/m² | - |
| 1777935279 | 26.67° C | 31% | 1004.5 hPa | 0 mm | - | 467 W/m² | - |
| 1777934976 | 26.67° C | 30% | 1004.6 hPa | 0 mm | - | 476 W/m² | - |
| 1777934672 | 26.67° C | 30% | 1005 hPa | 0 mm | - | 488 W/m² | - |
| 1777934370 | 26.67° C | 30% | 1004.8 hPa | 0 mm | - | 500 W/m² | - |
| 1777934065 | 26.67° C | 29% | 1005 hPa | 0 mm | - | 512 W/m² | - |
| 1777933761 | 26.11° C | 29% | 1005 hPa | 0 mm | - | 521 W/m² | - |
| 1777933459 | 26.11° C | 30% | 1005.2 hPa | 0 mm | - | 534 W/m² | - |
| 1777933157 | 26.67° C | 30% | 1005.1 hPa | 0 mm | - | 549 W/m² | - |
| 1777932853 | 26.67° C | 29% | 1005.2 hPa | 0 mm | - | 560 W/m² | - |
| 1777932551 | 26.67° C | 29% | 1005 hPa | 0 mm | - | 572 W/m² | - |
| 1777932247 | 26.11° C | 30% | 1005.3 hPa | 0 mm | - | 587 W/m² | - |
| 1777931944 | 26.11° C | 29% | 1005.5 hPa | 0 mm | - | 599 W/m² | - |
| 1777931641 | 26.67° C | 30% | 1005.5 hPa | 0 mm | - | 604 W/m² | - |
| 1777931337 | 25.56° C | 30% | 1005.7 hPa | 0 mm | - | 618 W/m² | - |
| 1777931034 | 25.56° C | 32% | 1005.8 hPa | 0 mm | - | 624 W/m² | - |
| 1777930731 | 26.11° C | 33% | 1005.7 hPa | 0 mm | - | 631 W/m² | - |
| 1777930426 | 25.56° C | 33% | 1005.6 hPa | 0 mm | - | 640 W/m² | - |
| 1777930124 | 25.56° C | 32% | 1005.8 hPa | 0 mm | - | 648 W/m² | - |
| 1777929820 | 25° C | 34% | 1005.9 hPa | 0 mm | - | 657 W/m² | - |
| 1777929518 | 25° C | 35% | 1005.9 hPa | 0 mm | - | 665 W/m² | - |
* Rain latest hour (hover to see other rain measurements)
** Current wind speed in m/s (hover to see current wind gust speed)